Tracking 19279 objects as of 13-Nov-2018
HD Live streaming from Space Station
objects crossing your sky now

COSMOS 830

Track COSMOS 830 now!
10-day predictions
COSMOS 830 is classified as:


NORAD ID: 8894
Int'l Code: 1976-054F
Perigee: 1,475.5 km
Apogee: 1,499.5 km
Inclination: 74.0 °
Period: 115.5 minutes
Semi major axis: 7858 km
RCS: 0.7027 m2 (medium)
Launch date: June 15, 1976
Source: Commonwealth of Independent States (former USSR) (CIS)
Launch site: PLESETSK MISSILE AND SPACE COMPLEX (PKMTR)
aabbcc
Your satellite tracking list
Your tracking list is empty




NASA's NSSDC Master Catalog

Two Line Element Set (TLE):
1  8894U 76054F   18316.82796644 -.00000028  00000-0 -83698-4 0  9996
2  8894  73.9982 160.1369 0015321 133.2166 355.2193 12.46217962929603
Source of the keplerian elements: AFSPC